sat.trackr.live / text

‹ back to catalog

STARLINK-31856

NORAD 59960 · 2024-107R

PAYLOAD ACTIVE UNKNOWN

§ Identity

Operator
Country
US
Launch date
2024-06-05
Launch site
AFETR
Launch vehicle
Mass (kg)
RCS (m²)

Purposes: comms

External: N2YO · Heavens-Above · Gunter

§ Orbital elements

Epoch: 2026-05-25T01:57:35.271072Z

Period
94.10 min
Inclination
53.1595°
Eccentricity
0.0001267
Mean motion
15.30224122 rev/d
Perigee alt
474.3 km
Apogee alt
476.0 km
Semi-major
6,853.3 km
B*
1.7278e-5
RAAN
70.6107°
Arg perigee
83.3071°
Mean anomaly
276.8074°
Rev number
11,149

§ Raw data

STARLINK-318561 59960U 24107R   26145.08165823  .00000153  00000+0  17278-4 0  99912 59960  53.1595  70.6107 0001267  83.3071 276.8074 15.30224122111490

JSON: /api/v1/satellites/59960 · /tle

For live sub-satellite position, see the globe view (requires WebGL).

§ Visibility from observer

Set your observer location to see the next 7 days of passes ≥ 10°. The values pass through the URL so the page stays shareable.

No JS? Fill the form by hand. The geolocation button needs JavaScript.